Regional Weather Roundup
Issued by NWS

Home | Current Version | Previous Version | Graphics & Text | Print | Product List | Glossary On
Versions: 1 2 3 4 5 6 7 8 9 10 11 12 13 14 15 16 17 18 19 20 21 22 23 24 25 26 27 28 29 30 31 32 33 34 35 36 37 38 39 40 41 42 43 44 45 46 47 48 49 50
000
ASUS43 KTOP 010359
RWRKS

WEATHER ROUNDUP FOR KANSAS
NATIONAL WEATHER SERVICE GOODLAND KS
1100 PM CDT TUE SEP 30 2014

NOTE:  "FAIR" INDICATES FEW OR NO CLOUDS BELOW 12,000 FEET WITH NO
SIGNIFICANT WEATHER AND/OR OBSTRUCTIONS TO VISIBILITY.

KSZ001>006-013>018-027>032-041>047-010500-
NORTHWEST KANSAS

CITY           SKY/WX    TMP DP  RH WIND       PRES   REMARKS
GOODLAND       MOCLDY    56  51  84 CALM      29.79R
HAYS           CLEAR     63  57  82 NE7       29.70S
HILL CITY      CLEAR     64  62  93 E6        29.72F
RUSSELL        MOCLDY    65  62  90 S3        29.68F
$$

KSZ061>065-074>080-084>089-010500-
SOUTHWEST KANSAS

CITY           SKY/WX    TMP DP  RH WIND       PRES   REMARKS
DODGE CITY     CLEAR     64  48  56 S7        29.75S
GARDEN CITY    CLEAR     66  40  38 NW6       29.75S
GREAT BEND     PTCLDY    66  61  82 S5        29.70S
LIBERAL        CLEAR     63  43  48 NE5       29.77R
$$

KSZ066>073-081>083-090>101-010500-
SOUTHEAST KANSAS

CITY           SKY/WX    TMP DP  RH WIND       PRES   REMARKS
CHANUTE        PTCLDY    72  62  71 S13       29.80F
COFFEYVILLE    PTCLDY    71  62  73 SE9       29.80S
HUTCHINSON     TSTM      77  60  55 S21G29    29.68F
MEDICINE LODGE   N/A     78  57  48 S14       29.69R
NEWTON         CLOUDY    73  57  56 S18G28    29.73S
PARSONS        PTCLDY    72  63  73 VRB7      29.81F
WICHITA INTL   CLOUDY    76  62  62 SE22G31   29.71S
WICHITA JABRA  MOCLDY    74  62  66 S20G28    29.72S
WINFIELD       PTCLDY    73  64  73 SE15G24   29.75F
$$

KSZ007>012-019>026-033>040-048>060-102>105-010500-
NORTHEAST KANSAS

CITY           SKY/WX    TMP DP  RH WIND       PRES   REMARKS
CONCORDIA      CLOUDY    65  65 100 SE5       29.72S
EMPORIA        MOCLDY    72  62  71 SE16      29.76S
LAWRENCE       MOCLDY    69  60  73 SE8       29.77S
MANHATTAN      LGT RAIN  74  64  71 S12G21    29.72R
OLATHE IND     PTCLDY    70  60  70 S8        29.80S
OLATHE EXE     PTCLDY    69  59  70 S10       29.79S
SALINA         TSTM      69  65  86 NW6       29.73R FOG
TOPEKA BILLARD MOCLDY    75  62  64 S15       29.76R
TOPEKA FORBES  CLOUDY    74  61  63 S18G24    29.76S
$$



USA.gov is the U.S. government's official web portal to all federal, state and local government web resources and services.